Weather History for Anniston, AL

Change the Weather History Date:

Monday, May 14, 2012

  Actual Average Record
Temperature  
Mean Temperature 68 °F 69 °F  
Max Temperature 75 °F 81 °F 93 °F (1905)
Min Temperature 60 °F 58 °F 41 °F (1952)
Cooling Degree Days 2    
Growing Degree Days 18 (Base 50)    
Moisture  
Dew Point 63 °F    
Average Humidity 79    
Maximum Humidity 93    
Minimum Humidity 64    
Precipitation  
Precipitation T in 0.15 in 2.24 in (1976)
Month to date precipitation 2.53 2.00  
Year to date precipitation 16.47 20.67  
Sea Level Pressure  
Sea Level Pressure 29.97 in    
Wind  
Wind Speed 5 mph (WSW)    
Max Wind Speed 14 mph    
Max Gust Speed 17 mph    
Visibility 9 miles    
Events Rain    
T = Trace of Precipitation, MM = Missing Value Source: NWS Daily Summary

Daily Weather History Graph

Daily Weather History Graph

Search for Another Location

Airport:

Trip Planner

Search our weather history database for the weather conditions in past years. The results will help you decide how hot, cold, wet, or windy it might be!

Date:

Astronomy

May. 14, 2012 Rise Set
Actual Time 5:43 AM CDT 7:36 PM CDT
Civil Twilight 5:15 AM CDT 8:04 PM CDT
Nautical Twilight 4:42 AM CDT 8:37 PM CDT
Astronomical Twilight 4:07 AM CDT 9:13 PM CDT
Moon 2:00 AM CDT (5/14) 2:11 PM CDT (5/14)
Length of Visible Light 14h 48m
Length of Day
13h 53m
Waning Crescent, 32% of the Moon is Illuminated
May 14
Waning Crescent
May 20
New
May 28
First Quarter
Jun 4
Full
Jun 11
Last Quarter

Hourly Weather History & Observations

Time (CDT) Temp. Dew Point Humidity Pressure Visibility Wind Dir Wind Speed Gust Speed Precip Events Conditions
12:53 AM 66.9 °F 64.0 °F 90% 29.95 in 10.0 mi Variable 3.5 mph - 0.01 in   Mostly Cloudy
1:53 AM 66.0 °F 64.0 °F 93% 29.94 in 10.0 mi WSW 5.8 mph - N/A   Mostly Cloudy
2:00 AM 66.2 °F 64.4 °F 94% 29.95 in 10.0 mi SW 5.8 mph - N/A   Mostly Cloudy
2:46 AM 66.2 °F 64.4 °F 94% 29.94 in 10.0 mi WSW 3.5 mph - N/A   Overcast
2:53 AM 66.0 °F 64.0 °F 93% 29.93 in 10.0 mi Calm Calm - N/A   Overcast
3:01 AM 66.2 °F 64.4 °F 94% 29.94 in 10.0 mi Calm Calm - N/A   Overcast
3:53 AM 66.0 °F 64.0 °F 93% 29.93 in 10.0 mi SW 3.5 mph - N/A   Overcast
4:36 AM 66.2 °F 64.4 °F 94% 29.94 in 10.0 mi Calm Calm - N/A   Overcast
4:53 AM 66.0 °F 64.0 °F 93% 29.93 in 10.0 mi Calm Calm - N/A   Overcast
5:27 AM 66.2 °F 64.4 °F 94% 29.95 in 10.0 mi Calm Calm - N/A   Overcast
5:53 AM 66.0 °F 63.0 °F 90% 29.95 in 10.0 mi SSW 3.5 mph - N/A   Overcast
6:41 AM 66.2 °F 64.4 °F 94% 29.98 in 7.0 mi WSW 3.5 mph - N/A   Overcast
6:53 AM 66.0 °F 64.0 °F 93% 29.97 in 6.0 mi Calm Calm - N/A   Overcast
7:00 AM 66.2 °F 64.4 °F 94% 29.98 in 5.0 mi WSW 4.6 mph - N/A   Overcast
7:07 AM 66.2 °F 64.4 °F 94% 29.98 in 4.0 mi WSW 4.6 mph - 0.00 in Rain Light Rain
7:53 AM 66.0 °F 64.0 °F 93% 29.98 in 7.0 mi SW 5.8 mph - 0.00 in   Overcast
8:35 AM 68.0 °F 64.4 °F 88% 30.00 in 10.0 mi WSW 5.8 mph - N/A   Overcast
8:53 AM 68.0 °F 64.0 °F 87% 29.98 in 10.0 mi SW 5.8 mph - N/A   Overcast
9:53 AM 69.1 °F 62.1 °F 78% 29.99 in 10.0 mi WSW 8.1 mph - N/A   Overcast
10:08 AM 69.8 °F 62.6 °F 78% 30.00 in 10.0 mi WSW 4.6 mph - N/A   Overcast
10:17 AM 69.8 °F 62.6 °F 78% 30.00 in 10.0 mi West 6.9 mph - N/A   Overcast
10:30 AM 71.6 °F 62.6 °F 73% 30.00 in 10.0 mi SW 6.9 mph - N/A   Overcast
10:39 AM 69.8 °F 62.6 °F 78% 30.00 in 10.0 mi West 9.2 mph - N/A   Overcast
10:53 AM 72.0 °F 63.0 °F 73% 29.99 in 10.0 mi SW 5.8 mph - N/A   Overcast
11:07 AM 71.6 °F 62.6 °F 73% 30.00 in 10.0 mi West 5.8 mph - N/A   Overcast
11:53 AM 71.1 °F 63.0 °F 75% 30.00 in 10.0 mi West 10.4 mph - N/A   Overcast
12:53 PM 73.0 °F 63.0 °F 71% 29.98 in 10.0 mi West 8.1 mph - N/A   Overcast
1:53 PM 73.4 °F 62.6 °F 69% 29.98 in 9.0 mi WSW 11.5 mph - N/A   Overcast
2:53 PM 73.9 °F 61.0 °F 64% 29.95 in 9.0 mi West 10.4 mph - N/A   Overcast
3:53 PM 73.0 °F 61.0 °F 66% 29.95 in 6.0 mi WSW 11.5 mph - N/A   Haze
4:53 PM 72.0 °F 61.0 °F 68% 29.95 in 9.0 mi WSW 10.4 mph - N/A   Mostly Cloudy
5:53 PM 71.1 °F 60.1 °F 68% 29.94 in 10.0 mi WSW 6.9 mph - N/A   Clear
6:53 PM 71.1 °F 61.0 °F 70% 29.94 in 10.0 mi West 4.6 mph - N/A   Clear
7:53 PM 68.0 °F 61.0 °F 78% 29.95 in 10.0 mi Calm Calm - N/A   Clear
8:53 PM 63.0 °F 61.0 °F 93% 29.96 in 9.0 mi Calm Calm - N/A   Clear
9:53 PM 63.0 °F 60.1 °F 90% 29.99 in 10.0 mi Calm Calm - N/A   Clear
10:53 PM 62.1 °F 60.1 °F 93% 29.99 in 9.0 mi Calm Calm - N/A   Clear
11:53 PM 62.1 °F 60.1 °F 93% 29.98 in 10.0 mi Calm Calm - N/A   Clear